Temp
-10 -11 -11 -13 -13 -12 -12 -12 -12 -12 -13 -15 -17 -17 -17 -18 -18 -18 -19 -19 -18 -18 -19 -19 -20 -20 -19 -18 -18 -17 -15 -15 -15 -15 -14 -14 -13 -13 -13 -14 -14 -13 -13 -14
-10 -11 -12 -13 -13 -13 -12 -12 -13 -13 -13 -14 -16 -17 -17 -17 -18 -18 -18 -19 -19 -19 -20 -19 -19 -19 -19 -18 -18 -18 -16 -15 -15 -15 -15 -14 -14 -13 -13 -13 -13 -13 -13 -14
-10 -11 -12 -14 -13 -13 -13 -13 -13 -13 -13 -14 -15 -17 -17 -17 -18 -18 -18 -18 -19 -19 -20 -19 -19 -19 -19 -18 -18 -18 -17 -16 -16 -15 -15 -15 -14 -14 -14 -13 -13 -13 -13 -13
-11 -11 -12 -14 -14 -13 -13 -13 -13 -13 -13 -14 -15 -17 -18 -18 -18 -18 -18 -18 -19 -19 -19 -19 -19 -19 -18 -18 -17 -17 -16 -16 -15 -15 -15 -15 -15 -14 -14 -13 -13 -13 -13 -13
-11 -12 -12 -14 -14 -14 -13 -13 -13 -13 -14 -14 -14 -16 -17 -18 -18 -18 -18 -19 -19 -19 -19 -19 -19 -19 -18 -17 -17 -16 -16 -15 -15 -15 -15 -14 -14 -14 -14 -14 -13 -13 -13 -13
-11 -12 -13 -14 -14 -13 -13 -13 -13 -13 -14 -14 -14 -15 -16 -17 -17 -18 -18 -18 -19 -19 -19 -18 -18 -18 -18 -17 -16 -16 -15 -15 -15 -14 -14 -15 -14 -14 -14 -14 -14 -14 -14 -14
-12 -12 -12 -14 -14 -14 -13 -13 -13 -13 -14 -14 -14 -14 -15 -17 -17 -18 -18 -18 -18 -18 -19 -18 -17 -18 -17 -17 -16 -15 -15 -15 -14 -14 -14 -14 -14 -14 -15 -15 -14 -14 -14 -14
-12 -12 -12 -14 -15 -14 -13 -13 -14 -14 -14 -14 -14 -14 -15 -16 -18 -18 -18 -18 -18 -18 -18 -18 -18 -17 -17 -17 -16 -15 -15 -14 -14 -14 -14 -14 -14 -14 -14 -14 -14 -14 -14 -15
-12 -12 -13 -14 -15 -14 -14 -13 -14 -14 -13 -14 -14 -14 -15 -16 -18 -18 -18 -19 -18 -18 -18 -18 -18 -18 -17 -16 -16 -16 -16 -15 -14 -13 -13 -13 -13 -13 -14 -13 -14 -13 -13 -13
-12 -13 -13 -14 -14 -14 -14 -14 -14 -14 -14 -14 -14 -14 -15 -16 -17 -19 -19 -19 -19 -18 -18 -18 -18 -18 -17 -17 -16 -16 -16 -16 -16 -15 -14 -14 -13 -13 -13 -13 -14 -14 -14 -13
-12 -13 -13 -14 -14 -14 -14 -14 -14 -14 -14 -14 -14 -14 -14 -15 -16 -18 -19 -19 -19 -19 -18 -18 -18 -17 -17 -17 -16 -16 -16 -16 -16 -16 -16 -16 -15 -15 -15 -14 -14 -14 -15 -15
-12 -13 -13 -13 -14 -14 -14 -14 -14 -14 -14 -14 -14 -14 -14 -15 -15 -16 -19 -19 -19 -19 -19 -18 -18 -18 -17 -17 -17 -16 -16 -16 -16 -16 -15 -16 -16 -16 -16 -16 -16 -16 -16 -16
-13 -13 -13 -13 -14 -14 -14 -14 -14 -15 -14 -14 -14 -14 -14 -14 -14 -15 -16 -19 -19 -19 -19 -18 -18 -18 -17 -17 -17 -17 -16 -16 -16 -16 -16 -16 -16 -16 -16 -16 -16 -16 -16 -16
-13 -13 -13 -13 -13 -14 -14 -14 -15 -15 -14 -14 -14 -15 -14 -14 -14 -14 -15 -16 -17 -19 -19 -19 -18 -18 -18 -17 -17 -17 -17 -16 -16 -16 -16 -16 -16 -16 -16 -16 -16 -16 -16 -16
-13 -13 -13 -14 -14 -14 -13 -14 -15 -15 -14 -14 -15 -15 -15 -14 -14 -14 -15 -15 -16 -18 -19 -18 -18 -18 -18 -18 -17 -17 -17 -16 -16 -16 -16 -16 -16 -16 -16 -16 -16 -16 -16 -16
-14 -14 -13 -13 -14 -14 -14 -14 -14 -15 -15 -14 -14 -15 -15 -15 -15 -14 -15 -15 -16 -17 -18 -18 -18 -18 -18 -18 -17 -17 -17 -16 -16 -16 -16 -16 -16 -16 -16 -16 -16 -16 -16 -16
-14 -14 -13 -14 -13 -14 -14 -14 -14 -15 -15 -15 -14 -14 -15 -15 -15 -15 -15 -15 -16 -16 -17 -17 -17 -18 -18 -18 -18 -18 -18 -17 -17 -17 -16 -16 -16 -16 -16 -16 -16 -16 -16 -16
-14 -14 -13 -14 -14 -14 -14 -14 -14 -14 -15 -15 -15 -15 -15 -15 -15 -15 -15 -15 -15 -16 -17 -17 -17 -17 -18 -19 -19 -19 -19 -19 -18 -17 -17 -16 -16 -16 -16 -16 -16 -17 -17 -17
-14 -14 -14 -13 -14 -14 -14 -14 -14 -14 -15 -15 -15 -15 -15 -15 -15 -15 -15 -15 -15 -16 -16 -17 -17 -18 -18 -18 -19 -19 -19 -19 -19 -18 -18 -18 -18 -18 -17 -17 -17 -17 -17 -17
-14 -14 -14 -14 -13 -13 -14 -14 -14 -14 -15 -15 -15 -15 -16 -15 -15 -15 -15 -16 -16 -16 -16 -16 -17 -18 -18 -18 -18 -18 -19 -19 -19 -18 -18 -18 -18 -18 -18 -18 -18 -18 -18 -18
-14 -14 -14 -14 -13 -13 -15 -14 -14 -14 -14 -15 -15 -16 -16 -16 -15 -15 -15 -15 -16 -16 -16 -16 -17 -17 -18 -18 -18 -18 -18 -18 -18 -18 -18 -18 -18 -19 -19 -19 -19 -19 -19 -19
-14 -14 -14 -14 -14 -13 -14 -14 -14 -14 -15 -15 -15 -16 -16 -16 -16 -15 -15 -15 -15 -16 -16 -17 -17 -17 -17 -18 -18 -18 -18 -18 -18 -18 -18 -19 -19 -19 -19 -20 -19 -19 -19 -19
-14 -14 -14 -14 -14 -14 -14 -14 -14 -14 -15 -15 -15 -16 -16 -16 -16 -16 -16 -16 -16 -16 -16 -16 -17 -17 -17 -17 -18 -18 -18 -18 -18 -18 -18 -19 -19 -19 -19 -19 -19 -19 -19 -19
-14 -14 -14 -14 -15 -15 -15 -14 -14 -15 -15 -15 -15 -16 -16 -16 -16 -16 -16 -16 -16 -16 -16 -16 -17 -17 -17 -17 -17 -17 -17 -17 -18 -18 -18 -18 -18 -18 -18 -19 -19 -19 -19 -19
-14 -14 -14 -14 -15 -15 -15 -15 -15 -14 -15 -15 -15 -16 -17 -17 -17 -16 -16 -16 -16 -16 -16 -16 -16 -17 -17 -17 -17 -17 -18 -18 -18 -18 -18 -18 -18 -18 -18 -18 -19 -19 -19 -19
-13 -14 -14 -15 -17 -15 -15 -15 -15 -15 -15 -15 -15 -16 -16 -16 -17 -17 -17 -17 -17 -16 -16 -17 -17 -17 -17 -17 -17 -18 -18 -18 -18 -18 -18 -18 -18 -18 -18 -19 -19 -19 -19 -19
Height
5811 5808 5803 5797 5792 5787 5780 5775 5767 5758 5750 5740 5733 5725 5719 5712 5706 5701 5697 5695 5693 5691 5692 5692 5692 5692 5697 5700 5704 5706 5709 5713 5719 5725 5726 5728 5737 5742 5747 5753 5756 5761 5764 5768
5810 5806 5803 5795 5790 5783 5777 5772 5765 5758 5749 5739 5730 5724 5719 5712 5706 5701 5698 5696 5693 5690 5688 5689 5690 5689 5693 5697 5700 5701 5706 5710 5714 5722 5726 5729 5732 5738 5741 5745 5752 5754 5757 5761
5808 5805 5801 5792 5789 5781 5776 5771 5765 5759 5749 5738 5730 5723 5717 5712 5706 5702 5698 5695 5693 5690 5687 5687 5687 5689 5690 5695 5701 5702 5702 5707 5711 5720 5724 5727 5729 5732 5735 5741 5745 5748 5750 5752
5806 5803 5799 5791 5788 5781 5775 5770 5764 5758 5750 5740 5731 5726 5718 5712 5707 5702 5698 5695 5692 5690 5687 5686 5686 5686 5688 5692 5699 5701 5702 5703 5707 5716 5721 5724 5725 5727 5732 5735 5738 5743 5747 5750
5805 5801 5798 5790 5786 5781 5776 5770 5764 5758 5750 5742 5734 5726 5719 5714 5708 5703 5699 5696 5692 5689 5688 5687 5687 5686 5685 5688 5694 5699 5700 5703 5707 5713 5719 5720 5722 5724 5728 5731 5734 5739 5743 5745
5802 5799 5795 5789 5785 5780 5775 5771 5764 5757 5752 5745 5736 5728 5721 5715 5711 5705 5701 5697 5694 5690 5688 5687 5686 5686 5684 5685 5691 5695 5697 5701 5705 5710 5714 5716 5720 5722 5724 5727 5730 5735 5739 5743
5799 5797 5794 5789 5783 5779 5775 5770 5765 5759 5752 5746 5738 5731 5722 5715 5712 5707 5702 5698 5695 5692 5689 5686 5686 5685 5684 5684 5687 5691 5694 5698 5703 5706 5709 5713 5715 5718 5720 5723 5724 5730 5733 5737
5796 5795 5792 5788 5782 5778 5774 5770 5765 5759 5753 5747 5740 5733 5726 5717 5712 5708 5704 5700 5697 5694 5692 5689 5685 5684 5683 5684 5686 5687 5690 5694 5697 5701 5705 5709 5712 5713 5717 5720 5722 5725 5728 5730
5793 5792 5789 5785 5781 5778 5773 5769 5765 5761 5755 5749 5743 5737 5728 5720 5714 5709 5706 5703 5700 5697 5694 5692 5689 5685 5684 5684 5684 5685 5687 5688 5693 5697 5699 5704 5707 5708 5711 5715 5717 5721 5725 5726
5791 5789 5787 5783 5780 5777 5772 5769 5765 5759 5755 5750 5745 5738 5731 5723 5715 5711 5708 5706 5704 5700 5698 5696 5693 5690 5686 5683 5683 5683 5684 5685 5687 5689 5692 5697 5700 5702 5706 5708 5710 5712 5715 5718
5787 5786 5785 5781 5777 5775 5771 5768 5764 5759 5755 5751 5746 5741 5734 5726 5717 5712 5709 5707 5704 5702 5700 5697 5695 5693 5690 5687 5685 5684 5682 5682 5684 5685 5688 5690 5692 5694 5697 5700 5703 5704 5706 5709
5784 5782 5780 5778 5776 5773 5769 5766 5762 5758 5756 5751 5747 5743 5736 5729 5721 5713 5707 5706 5704 5702 5700 5698 5695 5693 5691 5688 5686 5683 5681 5681 5681 5682 5684 5685 5687 5688 5690 5692 5695 5697 5699 5702
5779 5778 5777 5775 5775 5771 5768 5764 5760 5757 5754 5752 5748 5745 5738 5732 5725 5716 5709 5704 5703 5702 5700 5698 5696 5693 5691 5689 5686 5685 5683 5680 5679 5679 5680 5681 5682 5684 5685 5686 5689 5692 5694 5696
5774 5773 5772 5772 5771 5768 5767 5765 5758 5754 5752 5751 5749 5745 5740 5735 5729 5722 5714 5705 5701 5701 5701 5699 5697 5694 5691 5688 5685 5683 5682 5681 5680 5678 5679 5679 5680 5680 5682 5683 5685 5687 5688 5690
5769 5768 5768 5767 5766 5764 5763 5762 5758 5754 5749 5750 5748 5745 5741 5736 5731 5726 5719 5712 5704 5702 5701 5700 5697 5694 5691 5687 5684 5681 5679 5678 5678 5679 5678 5677 5677 5677 5678 5679 5681 5683 5684 5686
5762 5764 5763 5762 5763 5761 5759 5760 5757 5753 5748 5747 5746 5744 5741 5738 5733 5728 5723 5717 5710 5704 5702 5701 5698 5693 5689 5685 5680 5677 5675 5675 5675 5675 5676 5676 5676 5676 5676 5676 5677 5680 5681 5682
5756 5757 5757 5759 5756 5757 5758 5756 5754 5750 5746 5745 5744 5743 5740 5738 5734 5730 5725 5721 5716 5709 5704 5700 5698 5694 5689 5683 5678 5673 5669 5668 5671 5673 5674 5674 5674 5674 5674 5676 5677 5678 5678 5678
5751 5752 5752 5753 5752 5753 5753 5751 5750 5747 5743 5741 5740 5740 5739 5737 5734 5730 5726 5722 5719 5714 5709 5703 5698 5695 5691 5686 5679 5674 5670 5668 5669 5672 5673 5673 5673 5673 5674 5674 5674 5674 5674 5673
5745 5746 5746 5746 5747 5749 5748 5748 5746 5745 5742 5739 5737 5736 5735 5734 5733 5730 5727 5723 5720 5717 5712 5708 5703 5697 5692 5689 5683 5679 5676 5674 5673 5674 5674 5674 5674 5673 5673 5673 5673 5672 5673 5673
5737 5739 5741 5742 5741 5741 5743 5744 5743 5742 5740 5737 5735 5733 5732 5729 5730 5729 5726 5723 5720 5718 5715 5710 5706 5702 5697 5691 5688 5684 5681 5679 5677 5677 5677 5676 5676 5675 5674 5674 5673 5673 5673 5672
5729 5731 5733 5733 5734 5736 5737 5737 5737 5737 5739 5735 5734 5732 5730 5726 5724 5725 5724 5722 5720 5718 5715 5711 5708 5704 5701 5697 5691 5688 5686 5683 5681 5680 5680 5679 5679 5677 5676 5675 5674 5673 5673 5672
5722 5722 5724 5726 5728 5731 5730 5731 5732 5732 5731 5730 5728 5727 5726 5724 5720 5719 5720 5720 5718 5716 5714 5712 5708 5706 5703 5700 5697 5692 5688 5687 5685 5684 5683 5682 5681 5681 5680 5679 5679 5678 5677 5675
5713 5716 5716 5718 5722 5723 5723 5724 5724 5725 5726 5726 5723 5721 5720 5719 5716 5713 5715 5715 5714 5713 5712 5710 5708 5705 5703 5701 5699 5696 5693 5689 5687 5686 5685 5684 5683 5682 5682 5682 5681 5681 5680 5678
5703 5706 5706 5710 5716 5716 5714 5716 5716 5716 5717 5718 5717 5716 5713 5712 5711 5707 5708 5709 5709 5708 5708 5708 5706 5704 5702 5700 5699 5697 5694 5692 5689 5687 5686 5685 5685 5684 5683 5683 5682 5682 5681 5680
5694 5696 5700 5703 5708 5709 5707 5707 5708 5707 5709 5709 5710 5710 5708 5705 5703 5702 5700 5703 5703 5702 5702 5703 5701 5701 5700 5699 5697 5695 5693 5691 5690 5689 5687 5685 5685 5684 5683 5682 5682 5681 5681 5680
5682 5689 5690 5697 5698 5697 5697 5699 5701 5699 5698 5699 5703 5702 5699 5699 5697 5695 5693 5695 5696 5696 5695 5695 5694 5694 5693 5695 5693 5690 5689 5689 5688 5686 5685 5684 5683 5682 5681 5681 5680 5679 5678 5678
Wind_Speed
22 28 27 20 24 29 34 38 42 45 43 38 27 28 32 27 23 18 15 12 13 16 17 17 17 23 18 20 15 39 48 38 13 12 11 21 31 36 35 44 37 37 35 34
22 27 24 20 25 29 35 38 41 44 45 41 31 27 29 30 24 18 15 14 14 18 14 13 14 19 17 22 15 15 40 45 45 18 8 12 28 40 35 39 34 46 46 41
23 25 22 18 23 28 33 36 39 41 44 42 36 27 28 29 27 22 17 16 16 17 10 9 11 13 14 17 14 10 14 35 40 35 26 16 17 31 31 42 37 37 29 26
21 24 21 17 21 24 29 33 37 40 42 43 42 25 26 26 27 25 21 17 15 13 9 8 12 11 10 12 12 8 11 16 34 33 30 21 17 24 30 27 44 44 34 31
21 22 19 14 18 22 28 31 35 38 41 44 44 34 23 23 23 23 24 19 16 13 9 6 6 9 11 10 10 7 2 9 15 23 26 26 22 18 20 30 29 35 33 29
21 21 16 14 15 21 26 28 31 36 39 42 44 43 35 18 22 23 21 21 18 16 12 8 7 7 7 10 12 10 8 8 14 14 16 12 13 15 18 19 30 25 26 32
22 20 16 14 14 19 24 28 30 34 37 40 42 45 41 26 20 21 21 20 18 17 16 13 9 8 6 11 13 13 11 14 14 14 18 13 10 11 10 12 12 24 29 19
21 18 15 12 12 15 20 24 26 29 35 38 41 43 42 34 21 18 18 19 21 21 19 19 15 8 9 9 15 16 14 14 13 15 18 15 14 15 15 12 11 13 12 11
22 16 15 11 11 13 16 20 25 26 31 36 38 41 43 38 24 17 15 17 18 19 19 19 20 17 10 8 11 16 21 20 18 15 16 21 20 20 23 23 21 19 22 23
21 17 15 12 11 12 14 18 22 26 30 33 36 39 43 42 32 17 11 13 15 15 16 17 19 21 20 10 7 9 13 18 23 24 25 25 25 25 26 28 30 30 30 29
22 17 13 11 9 10 11 14 17 21 25 29 33 36 41 43 40 22 13 11 13 16 16 16 16 19 20 19 12 5 6 10 15 19 23 25 27 29 29 31 32 32 31 31
19 16 14 11 10 9 10 12 14 18 22 24 28 32 37 41 43 34 17 12 12 13 16 18 17 16 16 17 19 15 6 7 9 12 17 19 21 23 24 24 25 28 29 27
17 12 12 11 12 10 9 9 10 14 18 22 25 28 33 37 40 40 33 18 11 12 14 18 17 18 17 16 14 12 12 11 6 10 13 14 16 20 21 22 24 25 26 27
19 16 14 11 13 10 10 10 9 11 16 18 21 25 28 32 36 36 35 31 21 7 10 14 17 17 15 12 11 10 10 8 6 5 6 10 12 14 15 17 20 23 26 28
21 18 18 14 13 10 10 10 9 11 12 16 17 20 24 27 32 34 32 29 26 15 8 13 17 20 22 20 16 12 10 11 7 4 1 2 8 9 10 12 14 14 15 17
25 16 19 18 13 11 10 11 11 9 10 12 16 17 20 23 27 30 31 27 25 21 13 14 19 23 25 24 22 18 14 12 10 8 5 3 2 3 5 8 9 12 14 16
27 22 20 17 20 11 9 11 11 9 10 10 13 16 18 19 22 25 28 28 25 21 18 19 22 25 23 28 23 19 13 11 12 11 9 7 7 6 6 8 9 10 11 10
30 25 22 18 24 15 14 14 12 9 9 8 10 12 16 18 18 20 23 25 26 24 22 21 20 25 24 26 23 21 16 7 1 6 8 8 8 7 8 8 7 8 5 5
31 28 25 24 23 20 16 16 17 14 12 9 9 10 12 16 17 17 19 21 23 24 23 21 20 22 23 24 24 20 14 10 7 2 2 4 5 5 6 7 6 5 6 3
32 30 27 24 24 26 18 20 19 20 14 14 12 11 10 12 15 15 15 17 19 21 23 23 22 22 19 19 22 22 15 10 6 5 3 2 1 2 1 4 6 4 3 8
33 34 30 28 24 22 22 24 22 19 19 19 17 16 14 14 13 17 16 14 15 16 19 20 22 21 17 16 15 16 19 15 10 8 6 4 2 3 4 5 5 3 5 8
33 36 33 31 25 23 25 24 23 19 22 22 20 19 18 17 15 17 19 17 16 15 15 16 17 20 18 15 14 11 11 12 12 12 12 13 12 10 9 9 8 7 10 12
35 33 35 33 26 26 27 24 26 26 26 24 25 25 22 19 18 16 18 20 18 20 18 16 15 14 15 15 14 11 9 7 6 6 5 5 5 6 6 5 4 7 9 9
37 37 37 32 25 28 31 28 30 30 30 27 28 27 22 20 19 16 16 20 22 23 23 23 19 17 16 13 13 13 10 6 3 1 2 2 3 3 4 4 4 4 6 7
40 40 36 31 27 30 33 32 30 30 34 31 29 27 27 20 22 16 16 20 22 25 27 27 25 24 24 20 18 15 14 12 8 7 7 7 7 7 8 8 7 6 5 5
42 40 39 32 29 35 38 33 30 31 34 34 28 28 31 27 23 21 20 24 25 27 28 28 29 31 31 28 25 25 22 19 18 17 17 15 14 14 13 12 11 10 8 7
Wind_Direction
333 333 333 354 3 5 10 7 7 3 5 358 349 352 357 357 348 345 340 341 324 291 270 256 268 255 253 250 278 249 241 230 205 246 209 218 228 222 236 229 236 239 234 237
331 328 322 355 0 10 11 8 8 5 6 7 357 353 1 1 358 348 342 329 310 327 292 258 269 252 262 239 282 313 251 245 247 250 257 262 228 217 239 226 219 232 244 239
324 322 326 357 357 11 12 9 9 7 8 11 6 351 2 2 2 358 343 340 328 326 306 269 269 243 247 234 268 302 294 261 254 243 261 260 239 225 241 231 222 231 208 198
319 321 317 355 359 8 11 6 10 8 10 13 12 0 357 1 358 357 356 345 343 335 338 296 260 251 212 208 253 283 302 282 262 250 266 265 277 258 227 232 229 236 225 229
318 323 315 352 358 8 12 7 9 11 10 12 11 13 354 357 360 354 358 356 345 348 338 334 288 245 209 195 251 206 274 294 283 268 267 264 280 267 254 235 220 229 235 235
316 317 319 337 355 10 9 7 8 12 11 11 11 9 10 350 358 360 357 0 2 355 347 340 312 261 212 189 231 249 234 269 287 258 248 260 251 263 246 235 220 215 222 227
308 313 318 323 345 10 6 7 6 12 11 11 11 8 6 4 355 5 5 7 7 16 12 352 327 305 239 203 213 227 225 243 255 253 257 263 249 262 267 292 270 236 238 227
307 308 305 313 333 7 7 3 5 11 11 9 11 9 6 4 352 4 17 25 24 20 20 19 12 331 286 234 205 209 217 227 235 227 245 259 257 241 232 231 256 276 284 263
306 305 302 310 328 351 6 1 1 10 11 9 9 9 8 3 358 3 15 19 24 24 22 22 17 12 348 281 236 213 206 204 207 235 234 242 239 243 237 239 229 239 256 248
303 306 295 302 328 339 353 360 3 5 8 10 7 9 6 5 1 359 6 9 16 22 24 24 22 15 16 352 306 246 221 217 215 212 214 221 230 236 235 234 234 235 238 243
299 299 286 297 312 324 342 350 359 4 6 7 6 7 7 6 4 355 352 346 358 8 12 11 13 15 17 25 12 303 271 239 229 227 226 225 225 227 228 230 233 236 240 243
289 292 283 295 302 322 334 344 354 2 4 4 6 6 9 7 6 3 348 334 349 341 350 356 354 356 3 11 17 14 336 256 249 239 232 230 231 232 234 235 236 238 240 242
276 275 285 294 295 305 316 332 344 359 1 359 2 6 6 9 7 8 7 351 324 344 348 343 341 330 331 336 348 7 21 15 299 256 244 240 235 230 231 232 235 238 239 239
273 271 283 284 284 292 306 307 325 352 1 358 357 359 4 8 8 11 10 17 13 325 335 343 351 348 344 337 332 326 328 344 16 5 264 245 239 237 235 233 234 235 238 242
268 271 276 275 274 282 305 308 314 339 360 353 353 355 358 5 10 8 13 18 30 31 9 356 349 344 337 329 314 302 296 294 306 319 48 219 234 230 226 229 229 229 231 240
265 265 264 270 271 271 293 321 321 324 344 353 345 350 351 359 8 10 9 14 29 42 34 5 352 347 345 341 325 300 276 271 276 281 300 282 228 213 228 228 231 234 239 243
260 265 265 268 274 269 269 297 323 328 332 339 341 344 345 349 360 8 8 7 14 26 28 21 10 2 360 354 358 343 307 267 243 248 259 272 285 276 258 242 239 244 246 244
255 261 266 267 268 276 268 284 307 334 323 317 327 334 338 338 349 357 5 7 3 11 14 14 18 14 8 8 14 17 28 37 261 252 266 271 275 274 249 245 235 198 219 206
248 259 264 265 263 267 277 279 299 325 316 300 300 311 330 333 334 344 350 1 2 359 6 6 7 18 18 19 24 27 33 43 41 22 278 254 237 227 251 229 237 254 205 234
244 252 260 261 258 256 265 275 290 306 322 309 303 292 310 322 319 322 334 345 355 354 357 359 1 0 12 22 28 35 39 44 60 77 96 143 229 253 69 336 329 336 264 276
240 247 255 259 255 249 267 266 280 298 309 310 310 292 298 304 309 310 313 323 330 343 346 351 354 357 360 8 26 36 43 49 57 68 75 71 46 53 55 49 53 70 145 144
238 243 249 256 262 258 258 264 271 280 298 310 312 299 296 299 299 302 302 303 310 315 323 334 342 346 351 354 358 21 37 44 63 73 85 92 85 79 93 99 99 100 111 112
240 245 249 251 259 261 257 259 265 275 280 292 300 306 305 295 284 290 294 292 296 298 301 304 316 319 330 341 342 343 350 14 25 51 71 84 89 91 101 107 102 107 108 107
242 242 248 253 255 259 259 255 260 271 277 282 292 301 300 294 284 274 282 280 282 290 293 294 296 297 299 301 319 321 318 319 316 194 153 127 112 117 123 134 132 129 124 114
241 246 251 256 258 258 262 257 259 269 277 279 287 294 294 286 281 280 275 275 283 286 287 286 287 290 286 282 283 287 294 284 255 228 211 211 222 214 196 184 180 171 160 149
244 247 250 253 248 252 253 261 261 263 266 275 283 290 292 296 286 286 282 281 284 286 285 280 279 279 279 282 275 273 269 270 264 254 250 246 240 234 227 221 218 218 221 222